CZ-6A DEB, 54954

Orbit data source: Space-Track

CZ-6A DEB, 54954 is space debris in SSO originally from a launch on Fri, 11 Nov 2022 UTC launched from the Taiyaun Space Center, China (TSC). Debris objects in space refer to the collection of defunct objects orbiting the Earth. Examples of debris include non-operational satellites, rocket bodies, and fragments generated from explosions, collisions, or faulty payload assembly.

Loading next visibility...
Identifier
54954, 2022-151ST
Orbit
SSO
Country
Flag of CNCN / PRC
Related business
Manufacturer
SAST
Mission
Spacecraft
Bus & Motor
Unknown
Mass
Unknown
Launch date (UTC)
2022-11-11 (3 years ago)
Launch vehicle
Unknown
Launch site
Taiyaun Space Center, China (TSC)
Object type
Payload
Rocket body
Debris
Shape & HBR
Unknown shape, 0.1 m
Radar Cross Section
Small (<0.1 m²)

Expand to show TLE details & history
Last TLE update: 18 hours ago

TLE from 18 hours ago
0 CZ-6A DEB
1 54954U 22151ST  26130.14729895  .00004316  00000-0  87161-3 0  9995
2 54954  98.6159 185.8319 0092904  66.6627 294.4313 14.59233354184041
Epoch: 2026-05-10T03:32Z
TLE epoch observation values (Epoch: 2026-05-10T03:32:06.629Z)
Latitude
-0.00003°
Longitude
-95.15027°
Altitude
671.944 km
Speed
7.535 km/s
True Right ascension
12h 23m 19s
True Declination
0° 00' 00"
Sunlit
Object was in full shadow at epoch
Visualization orbit readout
Latitude
Unknown
Longitude
Unknown
Altitude
Unknown
Speed
Unknown
Apparent Right ascension
Unknown
Apparent Declination
Unknown
Sunlit
N/A
Visualization observer readout
Local Sidereal Time
05:30:56
Azimuth
Unknown
Elevation
Unknown
Doppler factor
Unknown
Orbital elements
Apogee altitude
758.443 km
Perigee altitude
627.061 km
Semi-major axis
7,070.889 km
Eccentricity
0.00929
Inclination
98.6159°
RAAN
185.8319°
Arg. of periapsis
66.6627°
True anomaly
293.4574°
Mean anomaly
294.4313°
Eccentric anomaly
293.94481°
Mean motion
3.65033 °/min
Orbital period
98.62 mins
BSTAR
0.00087161
Loading maneuver chart data...
Computing Atmospheric mass density...
Loading historical data...
Loading historical data...
Loading historical data...
Loading historical data...
Loading historical data...
Loading historical data...
Loading historical data...

Documentation

Showing up to 5 results
|